EWG149 EDDL-EDXW

Flight info

Callsign EWG149
Flight time 0h 46m
Altitude 31000
Route MEVEL1Z/05R MEVEL L179 OSNAD M170 ELSOB Y348 OMWEG DCT BADOS DCT OLDIP
Aircraft A319/M-SDE3FGHIRWY/LB1

Departure

Time 2026-04-30 19:54
Airport Düsseldorf Airport (EDDL)

Arrival

Time 2026-04-30 20:40
Airport Westerland Sylt Airport (EDXW)
Time Latitude Longitude Altitude Speed Heading
2026-04-30 19:19 51.28155 6.76726 129 ft 0 kts 276°
2026-04-30 19:40 51.28154 6.76739 124 ft 4 kts 275°
2026-04-30 19:41 51.28152 6.76782 124 ft 4 kts 276°
2026-04-30 19:41 51.28147 6.76820 129 ft 4 kts 316°
2026-04-30 19:41 51.28147 6.76827 125 ft 4 kts 351°
2026-04-30 19:41 51.28173 6.76835 129 ft 4 kts 14°
2026-04-30 19:42 51.28196 6.76841 126 ft 1 kts
2026-04-30 19:44 51.28201 6.76842 129 ft 3 kts
2026-04-30 19:44 51.28248 6.76849 129 ft 8 kts
2026-04-30 19:45 51.28301 6.76811 128 ft 9 kts 325°
2026-04-30 19:45 51.28360 6.76739 123 ft 12 kts 322°
2026-04-30 19:45 51.28414 6.76636 126 ft 12 kts 271°
2026-04-30 19:45 51.28368 6.76523 124 ft 12 kts 233°
2026-04-30 19:46 51.28317 6.76415 127 ft 12 kts 232°
2026-04-30 19:46 51.28268 6.76314 125 ft 11 kts 234°
2026-04-30 19:46 51.28222 6.76217 128 ft 10 kts 233°
2026-04-30 19:46 51.28179 6.76126 128 ft 10 kts 232°
2026-04-30 19:47 51.28137 6.76038 128 ft 10 kts 232°
2026-04-30 19:47 51.28108 6.75979 128 ft 10 kts 232°
2026-04-30 19:47 51.28047 6.75849 128 ft 13 kts 233°
2026-04-30 19:47 51.27982 6.75714 127 ft 16 kts 233°
2026-04-30 19:48 51.27913 6.75568 126 ft 17 kts 232°
2026-04-30 19:48 51.27861 6.75460 123 ft 11 kts 233°
2026-04-30 19:48 51.27839 6.75371 122 ft 8 kts 284°
2026-04-30 19:48 51.27886 6.75313 125 ft 4 kts 333°
2026-04-30 19:49 51.27890 6.75311 125 ft 0 kts 333°
2026-04-30 19:49 51.27936 6.75272 123 ft 12 kts 332°
2026-04-30 19:49 51.28004 6.75291 125 ft 3 kts 53°
2026-04-30 19:53 51.28038 6.75363 122 ft 36 kts 53°
2026-04-30 19:53 51.28350 6.76017 128 ft 109 kts 52°
2026-04-30 19:53 51.28896 6.77235 283 ft 146 kts 59°
2026-04-30 19:54 51.29477 6.78554 925 ft 146 kts 55°
2026-04-30 19:54 51.30102 6.79828 1531 ft 144 kts 59°
2026-04-30 19:54 51.30761 6.81192 1886 ft 166 kts 60°
2026-04-30 19:54 51.31503 6.82762 2256 ft 189 kts 60°
2026-04-30 19:55 51.32347 6.84550 2660 ft 214 kts 59°
2026-04-30 19:55 51.33296 6.86555 3141 ft 238 kts 59°
2026-04-30 19:55 51.34317 6.88764 3803 ft 254 kts 57°
2026-04-30 19:55 51.35722 6.90550 4615 ft 276 kts 28°
2026-04-30 19:56 51.37610 6.91352 5207 ft 283 kts 14°
2026-04-30 19:56 51.39539 6.91871 6297 ft 281 kts 13°
2026-04-30 19:56 51.41485 6.92330 7217 ft 285 kts 12°
2026-04-30 19:56 51.43454 6.92790 8115 ft 287 kts 13°
2026-04-30 19:57 51.45440 6.93270 9015 ft 290 kts 13°
2026-04-30 19:57 51.47447 6.93775 9921 ft 293 kts 13°
2026-04-30 19:57 51.49490 6.94165 10757 ft 300 kts
2026-04-30 19:57 51.51636 6.93880 11190 ft 323 kts 354°
2026-04-30 19:58 51.53933 6.93243 11469 ft 345 kts 353°
2026-04-30 19:58 51.56337 6.92559 12052 ft 355 kts 353°
2026-04-30 19:58 51.58785 6.91856 12779 ft 359 kts 353°
2026-04-30 19:58 51.61259 6.91149 13535 ft 363 kts 353°
2026-04-30 19:59 51.63762 6.90440 14259 ft 367 kts 353°
2026-04-30 19:59 51.66309 6.89995 14885 ft 367 kts
2026-04-30 19:59 51.71162 6.92049 16224 ft 361 kts 33°
2026-04-30 20:00 51.73180 6.94412 16899 ft 358 kts 47°
2026-04-30 20:00 51.74791 6.97449 17557 ft 357 kts 57°
2026-04-30 20:00 51.76269 7.00694 18227 ft 360 kts 56°
2026-04-30 20:00 51.77764 7.03974 18853 ft 363 kts 56°
2026-04-30 20:01 51.80785 7.10609 19961 ft 370 kts 56°
2026-04-30 20:01 51.82317 7.13983 20507 ft 374 kts 56°
2026-04-30 20:01 51.83866 7.17394 21033 ft 378 kts 56°
2026-04-30 20:02 51.86695 7.24631 22082 ft 385 kts 64°
2026-04-30 20:02 51.87949 7.28487 22607 ft 388 kts 64°
2026-04-30 20:03 51.90488 7.36289 23661 ft 394 kts 63°
2026-04-30 20:03 51.91770 7.40231 24139 ft 397 kts 63°
2026-04-30 20:03 51.93061 7.44206 24564 ft 400 kts 63°
2026-04-30 20:03 51.94361 7.48210 24986 ft 402 kts 63°
2026-04-30 20:04 51.95668 7.52237 25405 ft 405 kts 63°
2026-04-30 20:04 51.96980 7.56282 25817 ft 407 kts 63°
2026-04-30 20:04 51.98302 7.60365 26225 ft 409 kts 63°
2026-04-30 20:05 52.00961 7.68595 27023 ft 414 kts 63°
2026-04-30 20:05 52.02298 7.72754 27414 ft 417 kts 63°
2026-04-30 20:05 52.04996 7.81171 28201 ft 422 kts 62°
2026-04-30 20:06 52.06354 7.85411 28613 ft 424 kts 62°
2026-04-30 20:06 52.07713 7.89665 29072 ft 424 kts 62°
2026-04-30 20:06 52.09072 7.93926 29552 ft 425 kts 62°
2026-04-30 20:06 52.10429 7.98190 30023 ft 425 kts 62°
2026-04-30 20:07 52.11784 8.02462 30502 ft 424 kts 62°
2026-04-30 20:07 52.13119 8.06677 30906 ft 424 kts 62°
2026-04-30 20:07 52.15852 8.15327 31246 ft 436 kts 62°
2026-04-30 20:08 52.17240 8.19731 31376 ft 438 kts 62°
2026-04-30 20:08 52.18749 8.23961 31399 ft 427 kts 54°
2026-04-30 20:08 52.20637 8.27646 31403 ft 422 kts 44°
2026-04-30 20:09 52.25364 8.33192 31409 ft 420 kts 28°
2026-04-30 20:09 52.33108 8.39911 31408 ft 420 kts 28°
2026-04-30 20:10 52.40844 8.46673 31422 ft 419 kts 28°
2026-04-30 20:11 52.48549 8.53446 31425 ft 418 kts 28°
2026-04-30 20:11 52.53633 8.57933 31420 ft 417 kts 28°
2026-04-30 20:12 52.61293 8.64699 31414 ft 416 kts 28°
2026-04-30 20:13 52.66396 8.69220 31414 ft 416 kts 28°
2026-04-30 20:13 52.71752 8.72800 31409 ft 416 kts 19°
2026-04-30 20:14 52.77209 8.75973 31407 ft 416 kts 19°
2026-04-30 20:14 52.82661 8.79144 31412 ft 415 kts 19°
2026-04-30 20:15 52.88117 8.82323 31411 ft 415 kts 19°
2026-04-30 20:15 52.93570 8.85509 31416 ft 415 kts 19°
2026-04-30 20:16 52.99019 8.88703 31421 ft 415 kts 19°
2026-04-30 20:16 53.04471 8.91882 31415 ft 415 kts 17°
2026-04-30 20:16 53.07269 8.92654 31420 ft 415 kts
2026-04-30 20:17 53.10152 8.92390 31422 ft 415 kts 356°
2026-04-30 20:17 53.15913 8.91598 31417 ft 415 kts 356°
2026-04-30 20:18 53.21678 8.90767 31409 ft 416 kts 356°
2026-04-30 20:18 53.27449 8.89937 31225 ft 417 kts 356°
2026-04-30 20:18 53.30339 8.89529 30972 ft 417 kts 356°
2026-04-30 20:19 53.33226 8.89123 30590 ft 414 kts 356°
2026-04-30 20:19 53.35131 8.88854 30162 ft 413 kts 356°
2026-04-30 20:19 53.38929 8.88318 29415 ft 406 kts 356°
2026-04-30 20:19 53.41727 8.87922 28874 ft 401 kts 356°
2026-04-30 20:20 53.44492 8.87528 28311 ft 397 kts 356°
2026-04-30 20:20 53.47270 8.87137 27228 ft 405 kts 356°
2026-04-30 20:20 53.50109 8.86740 26129 ft 414 kts 356°
2026-04-30 20:20 53.53005 8.86330 25106 ft 421 kts 356°
2026-04-30 20:21 53.55897 8.85911 24546 ft 412 kts 356°
2026-04-30 20:21 53.58729 8.85497 23578 ft 406 kts 357°
2026-04-30 20:21 53.61527 8.85088 22528 ft 401 kts 357°
2026-04-30 20:21 53.64289 8.84686 21522 ft 397 kts 357°
2026-04-30 20:22 53.67038 8.84289 20636 ft 394 kts 357°
2026-04-30 20:22 53.69727 8.83899 20150 ft 380 kts 357°
2026-04-30 20:22 53.72286 8.83529 19719 ft 370 kts 358°
2026-04-30 20:22 53.74847 8.83164 19239 ft 369 kts 358°
2026-04-30 20:23 53.77426 8.82797 18767 ft 367 kts 358°
2026-04-30 20:23 53.79934 8.82443 18253 ft 365 kts 358°
2026-04-30 20:23 53.82457 8.82084 17783 ft 361 kts 358°
2026-04-30 20:23 53.84952 8.81722 17314 ft 358 kts 358°
2026-04-30 20:24 53.87428 8.81360 16854 ft 356 kts 358°
2026-04-30 20:24 53.89889 8.80999 16401 ft 354 kts 358°
2026-04-30 20:24 53.92330 8.80643 15940 ft 352 kts 358°
2026-04-30 20:24 53.94759 8.80289 15496 ft 350 kts 358°
2026-04-30 20:25 53.99587 8.79587 14595 ft 347 kts 358°
2026-04-30 20:25 54.01988 8.79237 14129 ft 346 kts 358°
2026-04-30 20:26 54.06760 8.78542 13190 ft 342 kts 358°
2026-04-30 20:26 54.11465 8.77852 12261 ft 337 kts 358°
2026-04-30 20:26 54.13796 8.77507 11796 ft 335 kts 358°
2026-04-30 20:27 54.18417 8.76829 10882 ft 331 kts 358°
2026-04-30 20:27 54.22827 8.76168 10630 ft 306 kts 357°
2026-04-30 20:28 54.26956 8.75553 10320 ft 293 kts 358°
2026-04-30 20:28 54.30998 8.74967 9553 ft 292 kts 358°
2026-04-30 20:29 54.35025 8.74376 8759 ft 289 kts 358°
2026-04-30 20:30 54.40991 8.73484 7564 ft 284 kts 358°
2026-04-30 20:30 54.46847 8.72613 6407 ft 279 kts 357°
2026-04-30 20:31 54.52666 8.71745 4890 ft 276 kts 356°
2026-04-30 20:32 54.58326 8.70893 3666 ft 270 kts 356°
2026-04-30 20:32 54.61975 8.69795 3014 ft 261 kts 336°
2026-04-30 20:33 54.63480 8.68252 2997 ft 243 kts 324°
2026-04-30 20:33 54.65664 8.65580 3000 ft 224 kts 324°
2026-04-30 20:33 54.66941 8.64028 3010 ft 225 kts 324°
2026-04-30 20:34 54.69501 8.60906 3009 ft 225 kts 324°
2026-04-30 20:34 54.72014 8.57832 3003 ft 211 kts 324°
2026-04-30 20:35 54.73191 8.56391 3003 ft 205 kts 323°
2026-04-30 20:35 54.74348 8.54972 3001 ft 203 kts 323°
2026-04-30 20:35 54.76640 8.52161 3009 ft 202 kts 324°
2026-04-30 20:36 54.77779 8.50761 3024 ft 195 kts 323°
2026-04-30 20:36 54.78855 8.49440 2824 ft 186 kts 323°
2026-04-30 20:36 54.80875 8.46954 2358 ft 171 kts 323°
2026-04-30 20:37 54.81829 8.45780 2135 ft 165 kts 323°
2026-04-30 20:37 54.82749 8.44646 1912 ft 159 kts 324°
2026-04-30 20:37 54.83610 8.43584 1713 ft 147 kts 324°
2026-04-30 20:37 54.84427 8.42577 1499 ft 142 kts 324°
2026-04-30 20:38 54.85222 8.41595 1323 ft 139 kts 325°
2026-04-30 20:38 54.86008 8.40624 1132 ft 138 kts 325°
2026-04-30 20:38 54.86786 8.39663 950 ft 137 kts 326°
2026-04-30 20:39 54.88295 8.37794 565 ft 131 kts 327°
2026-04-30 20:39 54.89039 8.36876 380 ft 129 kts 327°
2026-04-30 20:39 54.89756 8.35987 225 ft 128 kts 327°
2026-04-30 20:40 54.91102 8.34326 38 ft 75 kts 323°
2026-04-30 20:40 54.91347 8.34013 35 ft 32 kts 325°
2026-04-30 20:40 54.91514 8.33810 35 ft 28 kts 325°
2026-04-30 20:41 54.91676 8.33575 35 ft 7 kts 295°
2026-04-30 20:41 54.91697 8.33484 34 ft 9 kts 291°
2026-04-30 20:41 54.91722 8.33380 35 ft 9 kts 293°
2026-04-30 20:41 54.91728 8.33354 35 ft 0 kts 292°
2026-04-30 20:42 54.91729 8.33353 35 ft 1 kts 292°
2026-04-30 20:42 54.91734 8.33329 35 ft 5 kts 292°
2026-04-30 20:42 54.91728 8.33180 35 ft 7 kts 189°
2026-04-30 20:43 54.91672 8.33181 35 ft 8 kts 180°
2026-04-30 20:43 54.91608 8.33180 35 ft 10 kts 180°
2026-04-30 20:43 54.91532 8.33182 31 ft 11 kts 178°
2026-04-30 20:44 54.91498 8.33184 30 ft 3 kts 179°
2026-04-30 20:44 54.91456 8.33203 29 ft 8 kts 154°
2026-04-30 20:44 54.91385 8.33163 29 ft 2 kts 265°
2026-04-30 20:45 54.91386 8.33117 29 ft 0 kts 270°